Regional Weather Roundup
Issued by NWS Little Rock, AR

Home | Current Version | Previous Version | Text Only | Print | Product List | Glossary On
Versions: 1 2 3 4 5 6 7 8 9 10 11 12 13 14 15 16 17 18 19 20 21 22 23 24 25 26 27 28 29 30 31 32 33 34 35 36 37 38 39 40 41 42 43 44 45 46 47 48 49 50
000
ASUS44 KLZK 021105
RWRLZK

WEATHER ROUNDUP FOR ARKANSAS
NATIONAL WEATHER SERVICE LITTLE ROCK AR
600 AM CDT WED SEP 02 2015

NOTE: "FAIR" INDICATES FEW OR NO CLOUDS BELOW 12,000 FEET WITH NO
SIGNIFICANT WEATHER AND/OR OBSTRUCTIONS TO VISIBILITY.

ARZ001-003-010-029-021200-
NORTHWEST ARKANSAS

CITY           SKY/WX    TMP DP  RH WIND       PRES   REMARKS
FAYETTEVILLE   CLEAR     67  66  97 CALM      30.11R
FORT SMITH     CLEAR     71  66  84 NE5       30.07R
HARRISON       CLEAR     66  64  93 SE3       30.11R
BENTONVILLE    CLEAR     68  63  83 S5        30.11R
ROGERS         CLEAR     69  65  86 SE7       30.11R
SILOAM SPGS    CLEAR     68  61  77 SE6       30.08R
HIGHFILL       CLEAR     68  66  93 S5        30.10R
SPRINGDALE     CLEAR     68  66  94 CALM      30.12
$$

ARZ004-005-016-021200-
NORTH CENTRAL ARKANSAS

CITY           SKY/WX    TMP DP  RH WIND       PRES   REMARKS
BATESVILLE     CLEAR     70  68  94 NW3       30.09R
FLIPPIN        CLEAR     64  61  88 CALM      30.08S
MTN HOME       CLEAR     67  67 100 CALM      30.10R FOG
$$

ARZ040-041-021200-
WEST CENTRAL ARKANSAS

CITY           SKY/WX    TMP DP  RH WIND       PRES   REMARKS
MENA           CLEAR     68  64  88 CALM      30.11R
MOUNT IDA      CLEAR     66  64  93 CALM      30.07R FOG
$$

ARZ009-017-025-026-028-021200-
NORTHEAST ARKANSAS

CITY           SKY/WX    TMP DP  RH WIND       PRES   REMARKS
JONESBORO      CLEAR     67  67 100 CALM      30.09R
NEWPORT        CLEAR     70  70 100 CALM      30.10R FOG
WALNUT RIDGE   CLEAR     70  66  88 E3        30.09R
BLYTHEVILLE    CLEAR     72  72 100 SE3       30.10R
$$

ARZ022-023-033-042-044-021200-
CENTRAL ARKANSAS

CITY           SKY/WX    TMP DP  RH WIND       PRES   REMARKS
LITTLE ROCK    PTCLDY    72  68  87 CALM      30.08R
N LITTLE ROCK    N/A     72  69  92 CALM      30.08R
JACKSONVILLE   PTCLDY    69  67  96 NE3       30.07R
SEARCY         CLEAR     70  70 100 CALM      30.09S FOG
HOT SPRINGS    PTCLDY    69  66  90 CALM      30.09R
RUSSELLVILLE   CLEAR     66  65  96 CALM      30.08R
$$

ARZ036-021200-
EAST ARKANSAS

CITY           SKY/WX    TMP DP  RH WIND       PRES   REMARKS
WEST MEMPHIS   MOCLDY    70  70 100 CALM      30.07R
$$

ARZ050-053-066-070-073-021200-
SOUTHWEST ARKANSAS

CITY           SKY/WX    TMP DP  RH WIND       PRES   REMARKS
ARKADELPHIA    FAIR      68  68 100 CALM      30.08R
CAMDEN         PTCLDY    70  66  88 CALM      30.07R FOG
TEXARKANA      CLEAR     72  69  90 SW3       30.07S
EL DORADO      CLOUDY    71  68  90 CALM      30.07S FOG
DE QUEEN       FOG       67  67 100 CALM      30.06S VSB 1/4
$$

ARZ056-057-069-021200-
SOUTHEAST ARKANSAS

CITY           SKY/WX    TMP DP  RH WIND       PRES   REMARKS
PINE BLUFF     MOCLDY    71  69  93 CALM      30.07S
STUTTGART      PTCLDY    72  66  83 CALM      30.07S
MONTICELLO     CLOUDY    75  74  96 CALM      30.06R

$$




USA.gov is the U.S. government's official web portal to all federal, state and local government web resources and services.